Weather History for KMNM - February, 2014

Change the Weather History Date:

Tuesday, February 18, 2014

  Actual Average Record
Temperature  
Mean Temperature 16 °F -  
Max Temperature 32 °F 32 °F 51 °F (1997)
Min Temperature 1 °F 15 °F -16 °F (2006)
Degree Days  
Heating Degree Days 48    
Moisture  
Dew Point 17 °F    
Average Humidity 92    
Maximum Humidity 100    
Minimum Humidity 78    
Precipitation  
Precipitation 0.00 in - - ()
Sea Level Pressure  
Sea Level Pressure 29.68 in    
Wind  
Wind Speed 4 mph (SW)    
Max Wind Speed 16 mph    
Max Gust Speed 21 mph    
Visibility 6 miles    
Events      
Averages and records for this station are not official NWS values.
T = Trace of Precipitation, MM = Missing Value Source: NWS Daily Summary

Daily Weather History Graph

Daily Weather History Graph

Search for Another Location

Airport or City:

Trip Planner

Search our weather history database for the weather conditions in past years. The results will help you decide how hot, cold, wet, or windy it might be!

Date:

Astronomy

Feb. 18, 2014 Rise Set
Actual Time 6:46 AM CST 5:22 PM CST
Civil Twilight 6:16 AM CST 5:52 PM CST
Nautical Twilight 5:42 AM CST 6:27 PM CST
Astronomical Twilight 5:08 AM CST 7:01 PM CST
Moon 9:28 PM CST (2/18) 8:07 AM CST (2/18)
Length of Visible Light 11h 35m
Length of Day
10h 35m
Waning Gibbous, 87% of the Moon is Illuminated
Feb 18
Waning Gibbous
Feb 22
Last Quarter
Mar 1
New
Mar 8
First Quarter
Mar 16
Full

Hourly Weather History & Observations

Time (CST) Temp. Windchill Dew Point Humidity Pressure Visibility Wind Dir Wind Speed Gust Speed Precip Events Conditions
12:15 AM 15.8 °F 8.6 °F 15.8 °F 100% 29.76 in 10.0 mi NNW 4.6 mph - N/A   Mostly Cloudy
12:35 AM 15.8 °F 10.2 °F 14.0 °F 93% 29.76 in 10.0 mi NNW 3.5 mph - N/A   Clear
12:55 AM 15.8 °F 10.2 °F 15.8 °F 100% 29.77 in 10.0 mi NW 3.5 mph - N/A   Clear
1:15 AM 14.0 °F - 12.2 °F 93% 29.77 in 10.0 mi Calm Calm - N/A   Clear
1:35 AM 12.2 °F - 10.4 °F 92% 29.77 in 10.0 mi Calm Calm - N/A   Clear
1:55 AM 14.0 °F 8.2 °F 12.2 °F 93% 29.78 in 10.0 mi WNW 3.5 mph - N/A   Clear
2:15 AM 12.2 °F - 12.2 °F 100% 29.78 in 10.0 mi Calm Calm - N/A   Clear
2:35 AM 12.2 °F - 10.4 °F 92% 29.78 in 10.0 mi Calm Calm - N/A   Clear
2:55 AM 10.4 °F 4.0 °F 10.4 °F 100% 29.79 in 10.0 mi West 3.5 mph - N/A   Clear
3:15 AM 8.6 °F - 6.8 °F 92% 29.79 in 10.0 mi Calm Calm - N/A   Clear
3:35 AM 5.0 °F - -0.4 °F 78% 29.79 in 10.0 mi Calm Calm - N/A   Clear
3:55 AM 6.8 °F -0.1 °F 6.8 °F 100% 29.80 in 10.0 mi West 3.5 mph - N/A   Clear
4:15 AM 3.2 °F - -0.4 °F 85% 29.80 in 10.0 mi Calm Calm - N/A   Clear
4:35 AM 3.2 °F - 3.2 °F 100% 29.80 in 10.0 mi Calm Calm - N/A   Clear
4:55 AM 3.2 °F - 3.2 °F 100% 29.80 in 10.0 mi Calm Calm - N/A   Clear
5:15 AM 3.2 °F - 1.4 °F 92% 29.80 in 10.0 mi Calm Calm - N/A   Clear
5:35 AM 3.2 °F - 3.2 °F 100% 29.79 in 10.0 mi Calm Calm - N/A   Clear
5:55 AM 1.4 °F - -0.4 °F 92% 29.79 in 10.0 mi Calm Calm - N/A   Clear
6:15 AM 1.4 °F - -0.4 °F 92% 29.78 in 9.0 mi Calm Calm - N/A   Clear
6:35 AM 1.4 °F - -0.4 °F 92% 29.78 in 9.0 mi Calm Calm - N/A   Clear
6:55 AM 1.4 °F - -0.4 °F 92% 29.79 in 9.0 mi Calm Calm - N/A   Mostly Cloudy
7:15 AM 3.2 °F -6.2 °F -2.2 °F 78% 29.79 in 9.0 mi SW 4.6 mph - N/A   Overcast
7:35 AM 8.6 °F 0.1 °F 6.8 °F 92% 29.79 in 8.0 mi SW 4.6 mph - N/A   Overcast
7:55 AM 8.6 °F -1.3 °F 6.8 °F 92% 29.79 in 6.0 mi SSW 5.8 mph - N/A   Mostly Cloudy
8:15 AM 10.4 °F 2.2 °F 10.4 °F 100% 29.79 in 6.0 mi SW 4.6 mph - N/A   Mostly Cloudy
8:35 AM 12.2 °F 6.1 °F 10.4 °F 92% 29.79 in 5.0 mi SW 3.5 mph - N/A   Mostly Cloudy
8:55 AM 14.0 °F 3.9 °F 14.0 °F 100% 29.77 in 5.0 mi SSW 6.9 mph - N/A   Partly Cloudy
9:15 AM 17.6 °F 7.3 °F 17.6 °F 100% 29.78 in 4.0 mi SW 8.1 mph - N/A   Clear
9:35 AM 17.6 °F 5.0 °F 17.6 °F 100% 29.77 in 4.0 mi SW 11.5 mph - N/A   Partly Cloudy
9:55 AM 19.4 °F 7.2 °F 17.6 °F 93% 29.77 in 3.0 mi SSW 11.5 mph - N/A   Mostly Cloudy
10:15 AM 19.4 °F 7.2 °F 17.6 °F 93% 29.76 in 3.0 mi SW 11.5 mph - N/A   Scattered Clouds
10:35 AM 21.2 °F 8.3 °F 21.2 °F 100% 29.75 in 4.0 mi SSW 13.8 mph 19.6 mph N/A   Clear
10:55 AM 23.0 °F 12.4 °F 21.2 °F 93% 29.75 in 5.0 mi South 10.4 mph - N/A   Clear
11:15 AM 24.8 °F 12.9 °F 19.4 °F 80% 29.73 in 5.0 mi SW 13.8 mph - N/A   Clear
11:35 AM 24.8 °F 13.4 °F 21.2 °F 86% 29.71 in 5.0 mi South 12.7 mph 17.3 mph N/A   Clear
11:55 AM 26.6 °F 15.2 °F 21.2 °F 80% 29.71 in 5.0 mi SSW 13.8 mph - N/A   Partly Cloudy
12:15 PM 26.6 °F 16.8 °F 21.2 °F 80% 29.69 in 4.0 mi SSW 10.4 mph - N/A   Mostly Cloudy
12:35 PM 26.6 °F 16.8 °F 23.0 °F 86% 29.68 in 4.0 mi SSW 10.4 mph - N/A   Overcast
12:55 PM 28.4 °F 20.4 °F 24.8 °F 86% 29.66 in 5.0 mi SSW 8.1 mph - N/A   Overcast
1:15 PM 28.4 °F 20.4 °F 24.8 °F 86% 29.64 in 5.0 mi South 8.1 mph - N/A   Partly Cloudy
1:35 PM 30.2 °F 21.3 °F 26.6 °F 86% 29.63 in 5.0 mi SE 10.4 mph - N/A   Partly Cloudy
1:55 PM 30.2 °F 21.3 °F 26.6 °F 86% 29.62 in 5.0 mi South 10.4 mph - N/A   Clear
2:15 PM 30.2 °F 22.6 °F 26.6 °F 86% 29.61 in 5.0 mi South 8.1 mph - N/A   Partly Cloudy
2:35 PM 32.0 °F 26.4 °F 26.6 °F 80% 29.61 in 5.0 mi South 5.8 mph - N/A   Mostly Cloudy
2:55 PM 32.0 °F 21.2 °F 28.4 °F 87% 29.59 in 5.0 mi SSW 16.1 mph 20.7 mph N/A   Mostly Cloudy
3:15 PM 32.0 °F 22.1 °F 28.4 °F 87% 29.60 in 5.0 mi South 13.8 mph 20.7 mph N/A   Overcast
3:35 PM 32.0 °F 23.6 °F 28.4 °F 87% 29.59 in 5.0 mi South 10.4 mph - N/A   Overcast
3:55 PM 32.0 °F 24.2 °F 28.4 °F 87% 29.58 in 5.0 mi SSW 9.2 mph - N/A   Overcast
4:15 PM 32.0 °F 24.8 °F 28.4 °F 87% 29.57 in 5.0 mi SSW 8.1 mph - N/A   Overcast
4:35 PM 32.0 °F 25.6 °F 28.4 °F 87% 29.57 in 5.0 mi SSW 6.9 mph - N/A   Overcast
4:55 PM 32.0 °F 24.8 °F 28.4 °F 87% 29.57 in 5.0 mi SSW 8.1 mph - N/A   Scattered Clouds
5:15 PM 30.2 °F 26.7 °F 26.6 °F 86% 29.57 in 5.0 mi WSW 3.5 mph - N/A   Clear
5:35 PM 30.2 °F 25.4 °F 26.6 °F 86% 29.57 in 5.0 mi SW 4.6 mph - N/A   Clear
5:55 PM 30.2 °F 26.7 °F 28.4 °F 93% 29.57 in 5.0 mi SW 3.5 mph - N/A   Clear
6:15 PM 28.4 °F - 28.4 °F 100% 29.56 in 5.0 mi Calm Calm - N/A   Clear
6:35 PM 26.6 °F - 26.6 °F 100% 29.57 in 2.0 mi Calm Calm - N/A   Clear
6:55 PM 26.6 °F - 24.8 °F 93% 29.58 in 3.0 mi Calm Calm - N/A   Clear
7:15 PM 24.8 °F - 23.0 °F 93% 29.58 in 2.0 mi Calm Calm - N/A   Clear
7:35 PM 24.8 °F - 24.8 °F 100% 29.59 in 4.0 mi Calm Calm - N/A   Clear
7:55 PM 24.8 °F - 23.0 °F 93% 29.59 in 3.0 mi Calm Calm - N/A   Clear
8:15 PM 24.8 °F - 24.8 °F 100% 29.59 in 2.5 mi Calm Calm - N/A   Clear
8:35 PM 24.8 °F - 24.8 °F 100% 29.59 in 2.5 mi Calm Calm - N/A   Clear
8:55 PM 21.2 °F - 21.2 °F 100% 29.58 in 3.0 mi Calm Calm - N/A   Clear
9:15 PM 23.0 °F - 21.2 °F 93% 29.58 in 1.5 mi Calm Calm - N/A   Clear
9:35 PM 19.4 °F - 17.6 °F 93% 29.57 in 1.0 mi Calm Calm - N/A   Clear
9:55 PM 19.4 °F - 19.4 °F 100% 29.57 in 0.2 mi Calm Calm - N/A   Unknown
10:15 PM 19.4 °F - 19.4 °F 100% 29.58 in 1.8 mi Calm Calm - N/A   Clear
10:35 PM 21.2 °F - 21.2 °F 100% 29.57 in 1.8 mi Calm Calm - N/A   Mostly Cloudy
10:55 PM 21.2 °F - 21.2 °F 100% 29.57 in 3.0 mi Calm Calm - N/A   Overcast
11:15 PM 21.2 °F 16.4 °F 21.2 °F 100% 29.57 in 3.0 mi West 3.5 mph - N/A   Overcast
11:35 PM 23.0 °F - 21.2 °F 93% 29.58 in 3.0 mi Calm Calm - N/A   Overcast
11:55 PM 24.8 °F - 23.0 °F 93% 29.59 in 3.0 mi Calm Calm - N/A   Overcast